Regional Weather Roundup
Issued by NWS Boston, MA

Current Version | Previous Version | Text Only | Print | Product List | Glossary On
Versions: 1 2 3 4 5 6 7 8 9 10 11 12 13 14 15 16 17 18 19 20 21 22 23 24 25 26 27 28 29 30 31 32 33 34 35 36 37 38 39 40 41 42 43 44 45 46 47 48 49 50
000
ASUS41 KBOX 010410
RWRBOX

REGIONAL WEATHER ROUNDUP
NATIONAL WEATHER SERVICE TAUNTON MA
1200 AM EDT WED APR 01 2015

NOTE:  "FAIR" INDICATES FEW OR NO CLOUDS BELOW 12,000 FEET WITH NO
SIGNIFICANT WEATHER AND/OR OBSTRUCTIONS TO VISIBILITY.  THE FOLLOWING
OBSERVATION LOCATIONS DO NOT REPORT PRESENT WEATHER...PROVINCETOWN...
SMITHFIELD...BLOCK ISLAND...KEENE...AND OXFORD.

MAZALL-010500-
EASTERN MASSACHUSETTS

CITY           SKY/WX    TMP DP  RH WIND       PRES   REMARKS
BOSTON         PTCLDY    37  21  52 N9        29.79R WCI  30
BEVERLY        CLEAR     37  13  37 N8        29.78R WCI  31
LAWRENCE       PTCLDY    36  11  35 N5        29.81R
BEDFORD        CLEAR     35  13  40 N5        29.78R WCI  31
BLUE HILL        N/A     36  19  50 NE10      29.75R WCI  28
NORWOOD        PTCLDY    31  27  85 S3        29.78R
MARSHFIELD     MOCLDY    37  30  75 N6        29.78S
PLYMOUTH       CLOUDY    38  31  76 NW6       29.75F
TAUNTON        CLOUDY    39  32  76 NW3       29.75F
NEW BEDFORD    CLOUDY    37  33  85 CALM      29.74F
$$

MAZALL-010500-
CAPE COD AND THE ISLANDS

CITY           SKY/WX    TMP DP  RH WIND       PRES   REMARKS
FALMOUTH       CLOUDY    36  34  93 NW5       29.74F WCI  32
HYANNIS        CLOUDY    38  32  79 CALM      29.72F
CHATHAM        CLOUDY    37  33  85 CALM      29.75F
PROVINCETOWN   CLOUDY    39  32  75 NW9       29.76S
NANTUCKET      CLOUDY    37  34  89 N7        29.73F WCI  32
MARTHAS VNYRD  CLOUDY    35  31  85 CALM      29.74F
$$

MAZALL-010500-
CENTRAL AND WESTERN MASSACHUSETTS

CITY           SKY/WX    TMP DP  RH WIND       PRES   REMARKS
WORCESTER      CLEAR     36  18  48 N8        29.75R WCI  30
FITCHBURG      PTCLDY    34  19  54 NW3       29.80R
ORANGE         CLEAR     27  22  81 CALM      29.79R
SPRINGFIELD    CLEAR     28  25  89 SE3       29.78R
WESTFIELD      CLEAR     30  25  81 CALM      29.79R
NORTH ADAMS    PTCLDY    28  21  75 NW5       29.80R WCI  23
PITTSFIELD     PTCLDY    32  18  56 W8        29.77R WCI  25
$$

RIZALL-010500-
RHODE ISLAND

CITY           SKY/WX    TMP DP  RH WIND       PRES   REMARKS
PROVIDENCE     MOCLDY    37  32  82 NW5       29.76F
NEWPORT        CLOUDY    36  34  92 N6        29.75F WCI  31
BLOCK ISLAND   CLOUDY    36  34  93 CALM      29.76S
SMITHFIELD     CLEAR     34  27  75 NW8       29.74F WCI  27
WESTERLY       CLOUDY    36  35  96 CALM      29.77S
$$

CTZALL-010500-
CONNECTICUT

CITY           SKY/WX    TMP DP  RH WIND       PRES   REMARKS
BRADLEY INTL   CLEAR     32  29  88 NW10      29.78S WCI  24
HARTFORD       FOG       32  29  88 CALM      29.79F VSB 1/4
BRIDGEPORT     CLOUDY    36  32  85 NW10      29.79S WCI  28
DANBURY        CLOUDY    33  29  85 CALM      29.81R
GROTON         CLOUDY    36  35  96 N6        29.76F WCI  31
NEW HAVEN      MOCLDY    36  33  89 NW7       29.79R WCI  30
CHESTER        FAIR      34  34 100 N5        29.77S WCI  30
MERIDEN        PTCLDY    32  30  92 CALM      29.79S FOG
WILLIMANTIC    CLOUDY    34  32  92 N3        29.78F
OXFORD         FAIR      34  27  75 NW3       29.79R
$$

MEZ002-015-021-024-NHZ003-005-008-011-012-014-VTZ005-008-010500-
NORTHERN NEW ENGLAND

CITY           SKY/WX    TMP DP  RH WIND       PRES   REMARKS
PORTLAND ME    PTCLDY    34   8  33 N10       29.80R WCI  26
BANGOR ME      MOCLDY    29  12  49 NW10      29.80R WCI  20
CONCORD NH     PTCLDY    32  10  40 NW5       29.80R WCI  27
MANCHESTER NH  PTCLDY    36  10  34 NW8       29.79R WCI  30
NASHUA NH      PTCLDY    36  11  35 CALM      29.80R
PORTSMOUTH NH  PTCLDY    34  10  37 N5        29.78R WCI  29
JAFFREY NH     PTCLDY    30  16  56 VRB3      29.77R
KEENE NH       FAIR      27  23  86 CALM      29.80R
BURLINGTON VT  CLEAR     27   8  44 CALM      29.87S
MT. WASHINGTON PTCLDY     7 -15  36 NW35G40     N/A  WCI -18
$$

NYZ052-076-010500-
EASTERN NEW YORK

CITY           SKY/WX    TMP DP  RH WIND       PRES   REMARKS
ALBANY         PTCLDY    32  11  41 N7        29.86R WCI  26
NEW YORK CITY  MOCLDY    37  32  82 NW7       29.81S WCI  32
$$

ANZALL-010500-
MARINE OBSERVATIONS

STATION/POSITION TIME  TEMP    WIND        PRES    VSBY  WAVE
                       AIR SEA DIR/SP/G                  HT/PER
                 (UTC) (F)     (DEG/KT/KT) (MB)    (MI)  (FT/S)
BOSTON BUOY      0350   38 37   20/ 10/ 10 1008.3R         1/ 9
BUZZARDS BAY     0300          310/  5/  5 1008.3R
NANTUCKET SOUND  0350   37 36  210/  6/  8 1007.5F         1
MASS BAY-STELLWA 0304   38 37   20/  8/ 10   N/A    1 7/8  1/11
ISLE OF SHOALS   0400   37      20/ 10/ 12 1008.1R
S OF BLOCK IS    0308      37                N/A           3/ 8
$$

......................KEY.........................
  SKY/WX - SKY CONDITION/PRESENT WEATHER
  TMP    - TEMPERATURE IN FAHRENHEIT
  DWPT   - DEWPOINT IN FAHRENHEIT
  RH     - RELATIVE HUMIDITY IN PERCENT
  WIND   - DIRECTION AND SPEED IN MPH
  PRES   - MEAN SEA LEVEL PRESSURE IN INCHES OF HG
  WCI    - WIND CHILL INDEX
  VSB    - VISIBILITY IN MILES
  HX     - HEAT INDEX
  TC     - TEMPERATURE IN CELSIUS
  VRB    - VARIABLE WIND DIRECTION
  N/A    - NOT AVAILABLE



USA.gov is the U.S. government's official web portal to all federal, state and local government web resources and services.